sat.trackr.live / text

‹ back to catalog

TIANMU-1 16

NORAD 58701 · 2024-004B

PAYLOAD ACTIVE UNKNOWN

§ Identity

Operator
Country
PRC
Launch date
2024-01-05
Launch site
JSC
Launch vehicle
Mass (kg)
RCS (m²)

Purposes: earth_obs

External: N2YO · Heavens-Above · Gunter

§ Orbital elements

Epoch: 2026-05-25T05:05:35.565216Z

Period
94.34 min
Inclination
97.4623°
Eccentricity
0.0007545
Mean motion
15.26471569 rev/d
Perigee alt
481.2 km
Apogee alt
491.5 km
Semi-major
6,864.5 km
B*
1.9568e-4
RAAN
330.6656°
Arg perigee
78.3206°
Mean anomaly
281.8879°
Rev number
13,227

§ Raw data

TIANMU-1 161 58701U 24004B   26145.21221719  .00005032  00000+0  19568-3 0  99952 58701  97.4623 330.6656 0007545  78.3206 281.8879 15.26471569132274

JSON: /api/v1/satellites/58701 · /tle

For live sub-satellite position, see the globe view (requires WebGL).

§ Visibility from observer

Set your observer location to see the next 7 days of passes ≥ 10°. The values pass through the URL so the page stays shareable.

No JS? Fill the form by hand. The geolocation button needs JavaScript.